[[{"header":{"parameterUnit":"m.s-1","parameterCategory":1,"la1":30.2991,"la2":30.254,"lo1":-89.0895,"lo2":-89.0444,"dy":0.0017,"dx":0.0017,"nx":28,"ny":28,"refTime":"2023-06-26T21:00:00:Z","depth":0,"parameterNumber":2,"parameterNumberName":"U-component_of_WINDS"},"data":[0,0,0,0,0,0,0,0,0,0,0,0,0,0,0,0,0,0,0,0,0,0,0,0,0,0,0,0,0,0,0,0,0,0,0,0,0,0,0,0,0,0,0,0,0,0,0,0,0,0,0,0,0,0,0,0,0,0,2.3363,2.3363,0,2.3331,2.333,2.333,2.3166,2.3162,2.3159,2.3155,2.313,2.3133,2.3136,0,0,0,0,0,0,0,0,0,0,0,0,0,2.329,2.3292,2.3363,2.3363,2.3362,2.3331,2.333,2.333,2.3167,2.3162,2.3158,2.3153,2.3129,2.3132,2.3136,0,0,0,0,0,0,0,0,0,0,0,0,0,2.3297,2.3293,2.3363,2.3277,2.3269,2.3331,2.333,2.333,2.3168,2.3162,2.3156,2.3151,2.3128,2.3132,2.3136,2.3281,0,0,2.315,2.3152,0,0,0,0,0,0,0,0,2.3296,2.3299,2.329,2.3283,2.3274,2.3246,2.3295,2.3314,2.317,2.3207,2.3155,2.3148,2.3174,2.3174,2.3181,2.328,2.3279,2.315,2.3153,2.3155,2.3156,0,0,0,0,0,0,0,2.3296,2.33,2.335,2.329,2.3281,2.3242,2.3236,2.3298,2.3224,2.3203,2.3191,2.3189,2.3168,2.3177,2.3179,2.3278,2.315,2.3154,2.3157,2.3159,2.3494,2.3499,0,0,0,0,0,0,2.3307,2.3301,2.3351,2.3349,2.3271,2.3248,2.3242,2.3261,2.3223,2.3211,2.3194,2.3181,2.3173,2.3174,2.3178,2.3345,2.3155,2.3159,2.3162,2.3487,2.3495,2.3502,0,0,0,0,0,0,2.3306,2.3313,2.3353,2.3322,2.3324,2.3255,2.3279,2.3264,2.3272,2.3216,2.3202,2.3216,2.3168,2.3172,2.3256,2.3342,2.3161,2.3165,2.348,2.349,2.3498,2.3681,0,0,0,0,0,0,2.3304,2.3313,2.3367,2.3324,2.3326,2.3431,2.3284,2.3267,2.328,2.3263,2.3233,2.3223,2.3164,2.325,2.326,2.3345,2.3169,2.3472,2.3484,2.3495,2.3667,2.3695,2.372,0,0,0,0,0,2.3302,2.3421,2.337,2.3377,2.3391,2.3436,2.3437,2.3365,2.3287,2.3341,2.3304,2.3224,2.333,2.326,2.327,2.3358,2.3466,2.3481,2.3494,2.3655,2.369,2.3719,0,0,0,0,0,0,2.348,2.3414,2.3357,2.3465,2.3457,2.3408,2.3474,2.3404,2.3419,2.3404,2.3315,2.3309,2.3407,2.339,2.3313,2.3495,2.3384,2.3401,2.3503,2.3536,2.3562,2.3565,2.3172,0,0,0,0,0,2.3531,2.357,2.3512,2.3613,2.3611,2.3544,2.3561,2.3505,2.3494,2.349,2.346,2.3454,2.3486,2.3509,2.3535,2.3662,2.3654,2.3727,2.3753,2.3775,2.3792,2.3858,2.3891,2.3548,2.3548,2.3547,0,0,2.3639,2.3607,2.3639,2.3648,2.3635,2.368,2.3542,2.3596,2.3629,2.3499,2.3577,2.3554,2.3542,2.3648,2.3693,2.3637,2.3884,2.3793,2.3811,2.3816,2.3876,2.3909,2.3938,2.3557,2.3555,2.3554,0,0,2.3857,2.3837,2.3919,2.3908,2.3888,2.3841,2.3861,2.3822,2.3801,2.3876,2.378,2.3819,2.3875,2.387,2.3876,2.4089,2.4017,2.41,2.424,2.4305,2.4333,2.4356,2.4434,2.4463,2.4116,2.4117,2.4117,0,2.3995,2.4056,2.3971,2.403,2.4038,2.3918,2.4002,2.3995,2.3987,2.3996,2.3932,2.3999,2.3982,2.4086,2.4138,2.4145,2.4167,2.4105,2.4335,2.4358,2.4379,2.4452,2.4482,2.4127,2.4126,2.4125,2.4124,0,2.4226,2.4271,2.4339,2.4331,2.4346,2.4417,2.4345,2.437,2.4312,2.4273,2.4352,2.4326,2.4345,2.4365,2.431,2.4461,2.4427,2.435,2.4238,2.4423,2.4491,2.4518,2.4142,2.4139,2.4135,2.4133,0,0,2.4561,2.4501,2.4528,2.4522,2.449,2.4524,2.459,2.4605,2.463,2.4627,2.4682,2.4731,2.4658,2.4664,2.4607,2.4665,2.4838,2.4581,2.4579,2.4632,2.5004,2.5065,2.5098,2.4787,2.4792,2.4796,2.5006,0,2.4772,2.4879,2.4803,2.4924,2.4965,2.485,2.4907,2.4895,2.4859,2.489,2.4851,2.4888,2.4789,2.4792,2.4843,2.4806,2.4912,2.4789,2.484,2.4843,2.485,2.5133,2.5198,2.5397,2.5032,2.5036,2.5039,0,2.5034,2.5039,2.5164,2.5122,2.5136,2.5189,2.5196,2.5226,2.521,2.518,2.5185,2.5113,2.5176,2.5062,2.515,2.5068,2.5084,2.5069,2.5074,2.5079,2.4955,2.5149,2.5459,2.549,2.508,2.5077,2.5074,0,2.5268,2.5307,2.5385,2.5384,2.5337,2.5377,2.5359,2.5336,2.535,2.5357,2.5365,2.5381,2.539,2.5404,2.5339,2.5262,2.5435,2.5316,2.5415,2.5417,2.546,2.5459,2.578,2.5466,2.5465,2.5464,2.5464,0,2.5514,2.5596,2.549,2.5539,2.5627,2.5538,2.5628,2.5599,2.5579,2.5622,2.5523,2.5567,2.5475,2.551,2.5458,2.5539,2.5544,2.5523,2.551,2.5534,2.5537,2.5546,2.5532,2.5472,2.5471,2.5469,2.5468,0,2.5793,2.5725,2.5804,2.575,2.5739,2.5806,2.5762,2.5807,2.5762,2.5818,2.5826,2.5758,2.5793,2.5727,2.5755,2.572,2.5834,2.5797,2.584,2.583,2.5933,2.5925,2.6273,2.6315,2.5972,2.5975,2.5978,0,2.5956,2.6015,2.5967,2.5987,2.5974,2.6008,2.602,2.5934,2.5952,2.5936,2.5983,2.6008,2.6025,2.6086,2.6041,2.6061,2.6026,2.6146,2.6028,2.6051,2.603,2.6029,2.6035,2.6172,2.6176,2.6179,2.6182,0,2.6253,2.6215,2.6235,2.6243,2.626,2.6263,2.6259,2.6282,2.6191,2.6216,2.6248,2.626,2.6285,2.6313,2.6322,2.6306,2.6231,2.6218,2.6243,2.627,2.6293,2.6284,2.5909,2.6212,2.6209,2.6207,2.6205,2.6204,2.648,2.6527,2.65,2.6525,2.6512,2.651,2.6549,2.6508,2.6532,2.6545,2.6492,2.6537,2.6518,2.6522,2.6513,2.6549,2.6495,2.653,2.6539,2.655,2.6568,2.6285,2.655,2.6549,2.6548,2.6547,2.6546,0,2.6773,2.6749,2.6773,2.6769,2.6789,2.671,2.6702,2.6725,2.6764,2.6751,2.6768,2.6806,2.6831,2.6787,2.6805,2.6842,2.6808,2.685,2.6848,2.6846,2.6613,2.6591,2.6877,2.6877,2.6877,2.6877,2.6877,2.6877,2.6929,2.7004,2.6964,2.7032,2.7007,2.7048,2.705,2.7048,2.7037,2.7082,2.7102,2.707,2.7045,2.7061,2.7081,2.7067,2.7081,2.7136,2.7111,2.6895,2.6863,2.6832,2.6811,2.7139,2.7139,2.7341,2.7343,2.7344]},{"header":{"parameterUnit":"m.s-1","parameterCategory":1,"la1":30.2991,"la2":30.254,"lo1":-89.0895,"lo2":-89.0444,"dy":0.0017,"dx":0.0017,"nx":28,"ny":28,"refTime":"2023-06-26T21:00:00:Z","depth":0,"parameterNumber":3,"parameterNumberName":"V-component_of_WINDS"},"data":[0,0,0,0,0,0,0,0,0,0,0,0,0,0,0,0,0,0,0,0,0,0,0,0,0,0,0,0,0,0,0,0,0,0,0,0,0,0,0,0,0,0,0,0,0,0,0,0,0,0,0,0,0,0,0,0,0,0,1.0195,1.0196,0,1.0226,1.0226,1.0227,1.0209,1.0208,1.0207,1.0206,1.0238,1.0239,1.0241,0,0,0,0,0,0,0,0,0,0,0,0,0,1.0121,1.0122,1.0195,1.0196,1.0196,1.0226,1.0227,1.0227,1.0209,1.0208,1.0207,1.0206,1.0237,1.0239,1.0241,0,0,0,0,0,0,0,0,0,0,0,0,0,1.0152,1.0123,1.0195,1.0191,1.0191,1.0226,1.0227,1.0227,1.0209,1.0208,1.0207,1.0205,1.0236,1.0239,1.0241,1.0282,0,0,1.0249,1.025,0,0,0,0,0,0,0,0,1.0151,1.0155,1.0191,1.0191,1.0191,1.0212,1.0212,1.0246,1.021,1.0202,1.0206,1.0205,1.023,1.0233,1.0242,1.0284,1.0285,1.0249,1.025,1.0251,1.0252,0,0,0,0,0,0,0,1.0149,1.0154,1.0208,1.0192,1.0192,1.0187,1.019,1.0218,1.0223,1.0203,1.0202,1.0205,1.023,1.0239,1.0242,1.0286,1.0249,1.0251,1.0253,1.0254,1.0363,1.0364,0,0,0,0,0,0,1.0147,1.0152,1.0207,1.0208,1.0167,1.019,1.0193,1.0207,1.0223,1.0224,1.0207,1.0205,1.0236,1.0239,1.0243,1.0292,1.0251,1.0254,1.0255,1.0361,1.0363,1.0365,0,0,0,0,0,0,1.0145,1.0152,1.0205,1.018,1.0186,1.0192,1.0208,1.0208,1.0218,1.0226,1.0226,1.0215,1.0235,1.024,1.0273,1.0293,1.0255,1.0257,1.036,1.0362,1.0364,1.0391,0,0,0,0,0,0,1.0143,1.0151,1.0167,1.018,1.0188,1.0235,1.0209,1.021,1.0222,1.022,1.0234,1.0235,1.0234,1.0269,1.0275,1.0296,1.0259,1.0358,1.0361,1.0363,1.0389,1.0394,1.0399,0,0,0,0,0,1.0141,1.0174,1.0168,1.0175,1.0208,1.0236,1.024,1.0238,1.0224,1.024,1.0245,1.0235,1.029,1.0273,1.0279,1.0301,1.0356,1.036,1.0363,1.0386,1.0393,1.0399,0,0,0,0,0,0,1.0163,1.0176,1.0169,1.0208,1.0221,1.0233,1.0253,1.0246,1.0263,1.026,1.0257,1.0261,1.0295,1.0301,1.0282,1.0342,1.0321,1.0326,1.0336,1.0343,1.0348,1.0346,1.0261,0,0,0,0,0,1.0172,1.0194,1.0204,1.0237,1.0244,1.0247,1.0259,1.0257,1.027,1.0276,1.0283,1.0296,1.0316,1.033,1.0349,1.0389,1.0392,1.0407,1.0413,1.0417,1.0421,1.0442,1.0449,1.0375,1.0375,1.0375,0,0,1.0192,1.0202,1.0216,1.0242,1.0251,1.0274,1.0252,1.0277,1.0293,1.0279,1.0311,1.0317,1.0331,1.0368,1.0384,1.0374,1.0442,1.0421,1.0424,1.0426,1.0446,1.0453,1.046,1.0377,1.0377,1.0377,0,0,1.024,1.0249,1.0278,1.0288,1.0303,1.0305,1.0312,1.0324,1.0328,1.0359,1.0349,1.0369,1.0404,1.0414,1.0424,1.0475,1.0467,1.0481,1.0508,1.0529,1.0535,1.054,1.0558,1.0565,1.0485,1.0485,1.0486,0,1.0262,1.0296,1.0293,1.0319,1.033,1.0318,1.0347,1.0357,1.0378,1.0386,1.0374,1.0417,1.0426,1.0465,1.0478,1.0486,1.0494,1.048,1.0534,1.054,1.0544,1.0562,1.0568,1.0487,1.0487,1.0487,1.0487,0,1.0323,1.0346,1.0367,1.0387,1.0401,1.0428,1.0429,1.0444,1.044,1.0443,1.0475,1.0485,1.0506,1.0515,1.0512,1.0553,1.0546,1.0535,1.0514,1.0553,1.0569,1.0576,1.049,1.0489,1.0489,1.0488,0,0,1.0386,1.0404,1.0412,1.042,1.0436,1.0454,1.048,1.05,1.0512,1.0527,1.0548,1.0578,1.0567,1.0578,1.0576,1.0594,1.0634,1.058,1.058,1.059,1.068,1.0689,1.0697,1.0628,1.0629,1.063,1.0679,0,1.0435,1.048,1.0478,1.0521,1.0543,1.0531,1.0554,1.0566,1.0569,1.0588,1.0591,1.0612,1.0596,1.0603,1.0621,1.0625,1.0652,1.0622,1.0648,1.0649,1.0645,1.0705,1.0715,1.076,1.0685,1.0686,1.0687,0,1.0498,1.0514,1.0559,1.0571,1.0579,1.06,1.0618,1.0636,1.0649,1.065,1.0662,1.0657,1.0683,1.0661,1.0697,1.0676,1.0687,1.0691,1.0692,1.0695,1.0671,1.071,1.0775,1.0782,1.0697,1.0696,1.0695,0,1.0539,1.0572,1.0603,1.0611,1.0626,1.064,1.0647,1.0659,1.0671,1.0687,1.0694,1.0713,1.0723,1.0738,1.0737,1.0721,1.0773,1.0752,1.0775,1.0775,1.0787,1.0786,1.0855,1.0793,1.0793,1.0793,1.0793,0,1.0594,1.0622,1.0622,1.0641,1.0672,1.0669,1.07,1.0705,1.0715,1.0735,1.0726,1.0745,1.0743,1.0762,1.0761,1.0791,1.0796,1.0797,1.0797,1.0798,1.0798,1.0805,1.0802,1.0795,1.0795,1.0794,1.0794,0,1.0646,1.0647,1.068,1.0691,1.0694,1.0717,1.0726,1.0744,1.0746,1.0771,1.0777,1.0781,1.0802,1.0803,1.0828,1.0827,1.0864,1.086,1.0859,1.0859,1.0882,1.088,1.0958,1.0968,1.09,1.0901,1.0901,0,1.068,1.0702,1.0715,1.0727,1.0735,1.0755,1.0767,1.0765,1.0778,1.0794,1.081,1.0831,1.0848,1.0882,1.0887,1.0906,1.0902,1.0929,1.0905,1.0906,1.0903,1.0902,1.0904,1.0933,1.0934,1.0935,1.0935,0,1.0742,1.0742,1.076,1.0778,1.0793,1.0807,1.0821,1.0831,1.0831,1.0846,1.0868,1.0881,1.0906,1.0926,1.0944,1.0951,1.0943,1.0942,1.0949,1.0951,1.095,1.095,1.0872,1.0941,1.094,1.094,1.0939,1.0939,1.0787,1.0805,1.0817,1.0837,1.0847,1.0859,1.0877,1.0881,1.0899,1.092,1.0917,1.0941,1.0953,1.0977,1.0985,1.1003,1.0994,1.1004,1.1006,1.1009,1.1011,1.0946,1.1007,1.1006,1.1006,1.1006,1.1006,0,1.0848,1.0855,1.0874,1.0892,1.0908,1.0899,1.0913,1.0927,1.0949,1.096,1.0977,1.1002,1.1021,1.1027,1.1047,1.106,1.1057,1.1066,1.1065,1.1066,1.1018,1.1011,1.1068,1.1068,1.1068,1.1068,1.1068,1.1068,1.0882,1.0912,1.0913,1.0948,1.0954,1.0978,1.0987,1.0998,1.1007,1.1036,1.1052,1.1056,1.1065,1.1085,1.1102,1.1104,1.1111,1.1121,1.1121,1.1076,1.107,1.1064,1.1057,1.1123,1.1123,1.1167,1.1168,1.1168]}]]